Regional Weather Roundup
Issued by NWS

Home | Current Version | Previous Version | Text Only | Print | Product List | Glossary Off
Versions: 1 2 3 4 5 6 7 8 9 10 11 12 13 14 15 16 17 18 19 20 21 22 23 24 25 26 27 28 29 30 31 32 33 34 35 36 37 38 39 40 41 42 43 44 45 46 47 48 49 50

000
ASUS43 KIND 280359
RWRIN

WEATHER ROUNDUP FOR INDIANA
NATIONAL WEATHER SERVICE INDIANAPOLIS IN
1200 AM EDT FRI AUG 28 2015

NOTE: "FAIR" INDICATES FEW OR NO CLOUDS BELOW 12,000 FEET WITH NO
SIGNIFICANT WEATHER AND/OR OBSTRUCTIONS TO VISIBILITY.

* - STATION DOES NOT REPORT WEATHER SUCH AS PRECIPITATION OR FOG.

+ - STATION NOT QUALITY CONTROLLED BY THE NATIONAL WEATHER SERVICE.
    USE DATA WITH CAUTION...ESPECIALLY DEWPOINT AND RELATIVE
    HUMIDITY OBSERVATIONS.

INZ001>003-010>013-019-020-280500-
NORTHWEST INDIANA

CITY           SKY/WX    TMP DP  RH WIND       PRES   REMARKS
KNOX *+        CLEAR     57  55  94 CALM      30.13F
MONTICELLO +   CLEAR     64  58  83 E3        30.13S
RENSSELAER +   PTCLDY    59  59 100 NE5       30.14R

$$

LMZ046-743>745-280500-
SOUTHERN LAKE MICHIGAN

STATION/POSITION TIME  TEMP    WIND        PRES    WAVE
                       AIR SEA DIR/SP/G            HT
                 (UTC) (F)     (DEG/KT/KT) (MB)    (FT)
BURNS HARBOR     0300   64      80/  9/ 11 1021.0S
MICHIGAN CITY    0300   62      60/  8/  9   N/A
5NW MICH CITY    0300   66 71  110/ 10/ 12   N/A     1

$$

INZ004-005-014>016-021>024-280500-
NORTH CENTRAL INDIANA

CITY           SKY/WX    TMP DP  RH WIND       PRES   REMARKS
GOSHEN         CLEAR     59  54  83 E3        30.16S
SOUTH BEND     PTCLDY    57  54  89 CALM      30.16S

$$

INZ006>009-017-018-025>027-280500-
NORTHEAST INDIANA

CITY           SKY/WX    TMP DP  RH WIND       PRES   REMARKS
ANGOLA *+      CLEAR     55  54  94 E3        30.18S
FORT WAYNE     PTCLDY    59  55  87 E5        30.16S

$$

INZ028-029-035-036-043>045-051>053-280500-
WEST CENTRAL INDIANA

CITY           SKY/WX    TMP DP  RH WIND       PRES   REMARKS
CRAWFORDSVL +  CLEAR     55  55 100 E3        30.12F
GREENCASTLE +  CLEAR     61  55  82 CALM      30.13S
LAFAYETTE      CLEAR     62  57  83 CALM      30.12S
TERRE HAUTE    CLEAR     60  58  92 CALM      30.11S

$$

INZ030>032-037>040-046>048-054>057-064-065-280500-
CENTRAL INDIANA

CITY           SKY/WX    TMP DP  RH WIND       PRES   REMARKS
FRANKFORT +    CLEAR    N/A N/A N/A E6        30.15S
GREENWOOD *+   PTCLDY    64  55  72 SE5       30.14S
INDIANAPOLIS   PTCLDY    66  57  72 SE9       30.11S
-EAGLE CREEK   PTCLDY    66  58  75 E3        30.12S
KOKOMO *+      CLEAR     57  54  88 E5        30.15S
MT COMFORT *+  PTCLDY    57 N/A N/A CALM      30.14S
SHELBYVILLE    CLEAR     62  57  83 SE5       30.13S
ZIONSVILLE +   PTCLDY    61  56  84 E5        30.14S

$$

INZ033-034-041-042-049-050-058-059-280500-
EAST CENTRAL INDIANA

CITY           SKY/WX    TMP DP  RH WIND       PRES   REMARKS
MUNCIE         CLEAR     57  55  93 MISG      30.15S

$$

INZ060-061-067>069-081>083-085>088-280500-
SOUTHWEST INDIANA

CITY           SKY/WX    TMP DP  RH WIND       PRES   REMARKS
EVANSVILLE     CLEAR     65  60  84 CALM      30.11S
HUNTINGBURG *+ CLEAR     63  55  77 SE6       30.12S

$$

INZ062-063-066-070>080-084-089>092-280500-
SOUTH CENTRAL AND SOUTHEAST INDIANA

CITY           SKY/WX    TMP DP  RH WIND       PRES   REMARKS
BLOOMINGTON    CLEAR     60  58  92 CALM      30.13S
MADISON *+     CLEAR     59  55  88 E3        30.15F
SEYMOUR +      PTCLDY    61  57  88 CALM      30.13S

$$




USA.gov is the U.S. government's official web portal to all federal, state and local government web resources and services.